{"data":{"norad_id":62406,"epoch":"2026-09-22T23:45:42.987168Z","epoch_age_seconds":97013,"freshness":"FRESH","line1":"1 62406U 24248A   26265.99008087  .00003712  00000+0  23308-3 0  9991","line2":"2 62406  97.6383 221.1717 0015699   7.7123 352.4344 15.09806920 96344","mean_motion":15.0980692,"eccentricity":0.0015699,"inclination_deg":97.6383,"raan_deg":221.1717,"arg_perigee_deg":7.7123,"mean_anomaly_deg":352.4344,"bstar":0.00023308,"rev_number":9634,"period_min":95.376433961503,"perigee_km":525.93373568952,"apogee_km":547.64522184756,"semimajor_km":6914.9264787685,"source":"CELESTRAK","updated_at":"2026-09-23T09:00:21.397956Z"}}